EHI
30 31 29 22 17 17 16 16 15 12 9 6 4 3 3 3 3 3 3 3 3 3 3 1 0 0 0 0 0 0 0 1 2 2 1 1 1 1 0 0 0 0 0
29 30 29 23 19 18 18 18 17 14 9 6 4 4 4 4 4 4 3 3 3 3 3 2 1 0 0 0 0 0 1 2 3 3 2 2 2 1 0 0 0 0 0
32 31 30 25 22 20 18 19 18 14 8 5 5 5 6 6 6 5 3 3 3 3 3 2 1 0 0 0 0 0 2 3 3 3 3 3 3 1 0 0 0 0 0
36 34 30 26 23 20 17 16 16 12 7 4 5 5 6 6 6 5 3 3 3 3 2 1 0 0 0 0 0 0 1 3 3 3 3 3 2 1 0 0 0 0 0
37 35 30 26 23 19 16 14 14 12 8 5 5 4 5 5 4 4 4 4 3 1 1 0 0 0 0 0 0 0 1 2 3 3 3 1 1 0 0 0 0 0 0
35 32 28 24 22 19 16 15 15 13 10 8 6 5 5 4 3 3 3 4 3 1 0 0 0 0 0 0 0 0 0 1 2 3 2 1 0 0 0 0 0 0 0
30 29 26 22 20 17 16 16 15 11 9 9 8 6 5 4 2 1 1 2 2 1 0 0 0 0 0 1 1 0 0 0 1 1 2 1 0 0 0 0 0 0 0
26 25 23 21 18 16 16 16 14 10 9 9 9 7 4 2 1 0 0 1 1 0 0 0 0 0 0 1 1 0 0 0 0 0 1 1 0 0 0 0 0 0 0
21 20 19 17 17 17 17 16 14 11 10 10 9 7 4 1 0 0 0 0 0 0 0 0 0 0 0 0 0 0 0 0 0 0 0 0 0 0 0 0 0 0 0
16 14 14 14 14 15 16 15 14 12 11 11 9 6 3 1 0 0 0 0 0 0 1 1 1 0 0 0 0 0 0 0 0 0 0 0 0 0 0 0 0 0 0
12 10 10 10 11 13 14 14 13 11 11 10 9 6 3 2 0 0 0 0 0 0 1 2 1 0 0 0 0 0 0 0 0 0 0 0 0 0 0 0 0 0 0
6 6 6 7 8 11 13 13 11 10 9 9 8 5 3 1 0 0 0 0 0 0 1 1 0 0 0 0 0 0 0 0 0 0 0 0 0 0 0 0 0 0 0
2 2 2 3 6 9 11 11 10 8 7 7 7 5 3 1 0 0 0 0 0 0 0 0 0 0 0 0 0 0 0 0 0 0 0 0 0 0 0 0 0 0 0
1 0 0 1 4 7 8 8 7 6 6 6 6 6 4 2 0 0 0 0 0 0 0 0 0 0 0 0 0 0 0 0 0 0 0 0 0 0 0 0 0 0 0
1 1 0 0 2 5 5 5 4 4 4 4 5 5 3 1 0 0 0 0 0 0 0 0 0 0 0 0 0 0 0 0 0 0 0 0 0 0 0 0 0 0 0
2 1 0 1 2 4 4 3 1 1 1 1 2 3 2 1 0 0 0 0 0 0 0 0 0 0 0 0 0 0 0 0 0 0 0 0 0 0 0 0 0 0 0
1 1 0 1 2 3 3 2 0 0 0 0 0 1 1 0 0 0 0 0 0 0 0 0 0 0 0 0 0 0 0 0 0 0 0 0 0 0 0 0 0 0 0
2 1 0 1 2 2 2 1 0 1 1 1 0 0 0 0 0 0 0 0 0 0 0 0 0 0 0 0 0 0 0 0 0 0 0 0 0 0 0 0 0 0 0
2 1 0 0 1 1 0 0 0 1 2 1 0 0 0 0 0 0 0 0 0 0 0 0 0 0 0 0 0 0 0 0 0 0 0 0 0 0 0 0 0 0 0
1 0 0 0 0 0 0 0 0 1 1 1 0 0 0 0 0 0 0 0 0 0 0 0 0 0 0 0 0 0 0 0 0 0 0 0 0 0 0 0 0 0 0
0 0 0 0 1 1 0 0 0 0 0 0 0 0 0 0 0 0 0 0 0 0 0 0 0 0 0 0 0 0 0 0 0 0 0 0 0 0 0 0 0 0 0
0 0 0 0 1 1 0 0 0 0 0 0 0 0 0 0 0 0 0 0 0 0 0 0 0 0 0 0 0 0 0 0 0 0 0 0 0 0 0 0 0 0 0
0 0 0 0 1 1 0 0 0 0 0 0 0 0 0 0 0 0 0 0 0 0 0 0 0 0 0 0 0 0 0 0 0 0 0 0 0 0 0 0 0 0 0
0 0 0 0 0 0 0 0 0 0 0 0 0 0 0 0 0 0 0 0 0 0 0 0 0 0 0 0 0 0 0 0 0 0 0 0 0 0 0 0 0 0 0
0 0 0 0 0 0 0 0 0 0 0 0 0 0 0 0 0 0 0 0 0 0 0 0 0 0 0 0 0 0 0 0 0 0 0 0 0 0 0 0 0 0 0
0 0 0 0 0 0 0 0 0 0 0 0 0 0 0 0 0 0 0 0 0 0 0 0 0 0 0 0 0 0 0 0 0 0 0 0 0 0 0 0 0 0 0
Wind_Speed
3 3 2 2 2 2 2 2 2 1 1 1 1 1 1 1 2 2 2 2 2 2 1 1 1 1 1 1 2 2 1 2 2 0 1 1 1 2 3 2 2 3 3
3 3 3 2 2 2 2 2 2 2 1 1 1 1 1 2 2 2 2 2 3 2 2 2 1 2 2 2 2 2 2 1 2 1 1 1 1 2 2 3 3 3 3
4 4 3 3 2 2 2 2 2 2 1 1 2 2 2 2 2 2 2 3 3 3 3 2 2 2 2 2 2 2 1 2 2 2 1 1 1 2 2 3 4 3 4
4 4 3 3 2 2 2 2 2 2 2 2 2 2 2 2 2 2 3 3 3 3 3 3 2 2 2 2 2 2 2 3 3 2 1 1 1 1 1 2 3 3 3
4 4 3 2 2 2 2 2 2 2 2 2 2 2 2 2 2 3 3 3 4 3 3 3 3 4 4 3 3 2 3 3 2 2 1 1 1 1 1 0 2 2 2
4 3 3 3 2 2 2 3 3 3 3 3 3 2 2 1 3 5 4 3 3 3 2 2 3 4 5 6 6 5 5 3 2 2 1 1 0 0 0 0 1 1 1
4 4 3 3 3 2 3 3 3 3 3 3 3 2 2 2 3 4 5 3 3 2 2 2 2 3 4 4 6 7 6 6 4 2 2 1 1 1 1 1 1 1 0
4 3 3 3 3 3 3 3 2 2 3 2 2 2 2 3 4 4 5 4 3 3 3 2 2 2 3 4 4 5 4 4 3 2 1 0 0 0 1 2 1 1 2
4 3 3 3 4 4 4 3 2 2 2 2 2 2 3 3 4 5 5 4 4 3 3 3 2 3 3 5 5 4 4 3 4 5 4 4 4 4 3 3 2 2 1
3 3 3 3 4 4 3 3 2 3 2 3 3 3 3 3 4 5 5 3 3 3 3 3 4 4 4 4 4 4 3 2 2 4 5 5 5 4 5 2 1 2 1
3 3 4 3 3 3 3 3 3 3 4 4 4 3 3 3 4 5 5 3 3 2 2 2 3 5 6 5 4 3 2 2 2 3 3 4 4 3 3 2 1 1 1
4 4 4 3 3 3 4 4 3 4 5 4 3 3 3 2 3 4 5 4 4 3 2 2 2 4 5 5 4 4 4 4 3 3 3 3 2 2 2 2 2 2 1
5 4 4 4 4 3 4 4 3 3 3 3 3 2 2 2 2 4 4 4 5 4 3 4 4 5 5 4 5 5 4 3 3 3 2 1 1 2 2 2 3 3 3
5 4 4 4 4 4 3 3 3 2 2 2 2 2 1 1 1 2 2 3 4 4 3 4 6 6 5 4 3 2 2 2 2 2 1 1 2 2 2 2 2 2 2
5 4 4 4 4 4 3 3 2 1 1 2 2 2 2 1 1 2 3 2 2 2 3 3 3 3 3 3 2 2 2 2 2 1 1 2 2 2 2 2 2 2 2
5 4 3 3 3 3 3 3 6 4 5 4 3 3 1 2 3 5 5 4 4 5 5 3 3 2 2 1 1 1 1 1 1 1 1 1 1 1 2 2 2 1 1
5 4 3 3 3 2 2 3 2 4 7 6 5 4 3 4 5 5 5 6 5 6 4 3 2 1 1 1 1 1 1 1 0 1 1 1 1 1 1 1 1 1 1
4 5 4 3 3 2 2 2 2 2 2 3 4 4 4 4 4 5 6 6 4 3 2 2 1 1 1 0 1 1 1 1 1 1 1 1 0 0 1 1 1 1 1
3 3 3 3 2 2 2 2 2 2 2 2 2 3 3 4 5 5 4 3 3 2 2 1 1 1 1 0 0 0 0 1 1 1 1 1 1 0 1 1 1 1 1
3 5 4 3 3 3 2 2 2 2 2 2 1 1 1 2 2 2 2 1 2 1 1 1 1 1 1 1 0 0 0 0 0 1 1 1 1 1 1 1 1 1 2
3 3 5 3 3 2 2 2 2 2 2 2 1 1 2 2 2 2 1 1 1 1 1 1 1 1 1 1 0 0 0 0 1 1 1 1 1 1 1 1 1 2 2
3 3 3 3 3 2 2 2 2 2 2 2 1 1 2 2 2 1 1 1 1 1 1 1 1 1 1 1 1 1 1 1 1 1 1 1 1 1 1 1 1 2 2
4 4 3 3 3 3 2 2 2 3 2 2 2 2 2 2 2 1 1 1 1 1 1 1 1 0 0 1 1 1 2 1 2 1 1 1 1 1 1 2 2 2 2
4 4 4 3 3 3 3 2 2 3 3 3 3 2 3 3 2 2 1 1 1 1 1 1 1 1 1 1 1 1 1 1 1 2 2 2 2 1 1 2 2 2 2
3 3 3 3 3 3 3 3 3 3 3 3 3 3 3 3 2 2 2 2 2 1 1 1 1 1 1 1 1 1 1 1 1 1 1 1 2 2 2 2 2 2 2
4 4 3 3 3 3 3 3 3 3 3 3 3 3 3 3 3 2 2 2 2 1 1 1 1 1 2 1 2 1 1 1 1 1 1 1 1 2 2 2 3 3 3
Wind_Direction
186 185 176 189 192 180 182 201 201 179 159 163 146 94 100 107 117 121 129 127 120 95 90 97 57 68 93 93 102 107 108 132 153 47 350 348 15 32 28 32 38 43 43
175 166 163 162 158 170 184 191 176 163 158 155 117 104 104 97 104 122 137 126 119 102 85 84 64 73 80 83 95 102 112 130 141 135 41 16 20 32 35 43 41 45 47
157 153 151 151 150 158 169 171 157 149 133 108 110 112 106 106 108 119 132 120 113 111 102 102 97 92 83 87 96 98 103 104 107 120 83 36 30 45 48 51 50 36 45
142 146 152 159 163 162 149 135 140 139 123 106 100 108 115 118 112 115 118 115 104 91 86 91 95 107 115 113 100 96 102 96 94 100 90 59 43 35 57 54 46 36 32
139 144 152 144 136 126 118 119 118 119 125 113 98 83 82 99 101 107 108 106 104 93 80 76 78 83 86 92 104 111 113 107 104 101 93 74 54 52 29 35 64 53 41
136 135 122 110 107 107 116 116 110 108 104 96 92 90 75 71 91 106 110 103 101 98 86 74 75 68 75 81 89 98 108 119 126 118 112 114 88 210 195 134 113 88 59
119 114 108 102 98 100 118 114 113 105 97 93 86 86 78 65 90 106 107 113 107 99 92 83 79 73 81 86 78 73 68 72 97 138 133 156 214 218 160 132 124 100 103
108 108 107 111 111 108 108 109 108 106 105 104 94 89 82 68 83 98 104 102 94 89 84 84 88 74 79 99 95 78 64 53 58 81 110 108 46 136 163 168 157 104 70
106 110 114 120 119 117 119 118 113 107 99 97 96 89 83 67 77 92 101 98 88 74 62 60 82 83 77 99 100 89 69 47 53 63 65 62 63 69 83 95 95 103 86
119 113 107 111 116 119 121 112 100 105 107 102 84 79 85 76 74 86 97 97 88 72 55 50 57 76 84 93 100 101 90 52 49 51 48 44 47 57 67 87 119 128 111
114 110 100 100 116 118 108 105 107 103 95 87 83 68 67 68 74 81 92 102 111 97 77 57 51 73 85 87 85 88 106 110 80 69 57 44 40 41 39 41 54 107 124
103 104 97 87 94 105 110 105 106 113 109 99 89 73 55 54 69 85 90 96 111 106 95 73 63 76 82 78 76 79 83 85 80 73 60 41 32 24 16 25 46 54 49
91 87 88 85 77 91 108 113 110 111 114 113 108 96 64 53 60 69 81 91 99 99 94 95 83 78 76 71 66 71 80 83 85 80 70 31 4 8 32 45 47 50 49
96 88 85 88 82 76 80 89 102 114 120 123 125 120 88 59 59 73 86 95 93 91 89 83 78 72 70 62 58 57 65 78 97 94 67 29 26 41 47 46 48 50 55
103 97 92 91 96 86 77 67 86 96 147 151 157 159 154 151 238 137 128 118 114 110 103 80 69 65 61 51 48 45 50 60 63 61 67 51 39 40 38 35 47 65 60
113 107 109 110 106 107 107 81 55 63 66 81 99 122 109 127 114 107 101 95 95 107 101 91 80 74 74 62 48 39 45 52 43 55 71 68 60 51 41 40 44 52 47
128 129 126 124 124 125 121 117 95 58 58 64 71 93 116 118 112 112 109 100 91 106 99 100 97 92 84 74 54 46 36 28 48 73 71 65 50 43 46 32 29 26 14
129 134 137 141 139 134 126 122 122 119 93 58 51 71 90 102 104 109 111 103 87 89 107 118 119 115 104 79 47 27 33 49 59 56 45 29 24 31 21 352 354 357 341
138 142 144 138 134 130 126 122 117 117 117 101 79 58 69 87 85 87 105 104 117 117 124 130 135 139 146 152 89 45 63 46 34 32 14 348 333 316 307 303 312 326 319
147 150 143 139 136 135 136 139 136 132 131 128 132 138 108 100 96 94 100 113 128 138 154 164 171 176 183 192 172 92 45 39 5 335 328 318 306 289 287 290 290 295 295
150 153 152 146 146 151 156 164 161 156 154 153 183 194 163 148 150 149 147 155 166 175 188 187 184 185 182 168 159 174 206 312 315 302 305 309 302 289 290 289 291 291 298
156 159 159 157 154 158 168 172 166 165 168 170 184 136 144 146 151 154 156 169 203 194 186 176 179 197 204 197 198 199 200 223 262 274 277 277 277 285 292 298 303 302 299
161 160 154 151 152 155 160 168 174 176 180 183 183 173 161 164 169 175 185 194 181 172 161 161 167 190 218 217 211 203 208 227 241 239 240 253 268 277 278 281 288 296 301
164 161 159 158 159 167 175 181 187 189 190 192 194 193 190 182 174 176 185 177 161 157 151 154 170 201 222 225 214 213 226 244 245 234 232 241 257 272 278 283 284 291 293
164 162 166 172 175 180 185 191 197 200 202 202 198 195 191 182 177 178 177 166 162 165 165 173 184 207 227 231 230 236 248 251 256 264 248 243 255 259 264 273 283 292 295
171 170 175 179 184 187 189 196 204 206 205 203 197 192 188 184 181 180 176 171 175 188 203 214 224 230 238 241 247 250 232 251 285 291 264 246 260 276 289 287 294 293 293